time_stamp(utc),avg(mph),gust(mph),direction(deg),12m_air_temp(f),sonic_u(cm/s),sonic_v(cm/s),sonic_w(cm/s),pressure,2m_air_temp(f),pyranometer(W/m^2)
"2018-11-21 00:02:07+00",20.6,23.6,,44.8,-792,469,60,1015.85,44.5,0
"2018-11-21 00:07:07+00",19.7,24.7,,44.6,-778,426,54,1015.98,44.2,0
"2018-11-21 00:12:07+00",21.6,24.6,,44.7,-851,462,70,1016.02,44.2,0
"2018-11-21 00:17:07+00",22.0,24.0,,44.7,-843,507,63,1016.19,44.2,0
"2018-11-21 00:22:07+00",22.0,25.0,,44.5,-842,524,58,1016.3,44.1,0
"2018-11-21 00:27:07+00",19.7,22.7,,44.3,-747,464,31,1016.37,43.9,0
"2018-11-21 00:32:07+00",21.4,23.4,,44.2,-797,548,48,1016.4,43.8,0
"2018-11-21 00:37:07+00",18.5,21.5,,44.2,-708,451,99,1016.36,43.7,0
"2018-11-21 00:42:07+00",22.6,25.6,,44.3,-828,559,54,1016.35,43.7,0
"2018-11-21 00:47:07+00",22.1,27.1,,44.2,-814,577,62,1016.46,43.6,0
"2018-11-21 00:52:07+00",20.4,22.4,,44,-747,530,54,1016.55,43.5,0
"2018-11-21 00:57:07+00",20.0,22.0,,43.9,-778,435,47,1016.43,43.4,0
"2018-11-21 01:02:07+00",18.2,22.2,,43.7,-654,489,45,1016.48,43.2,0
"2018-11-21 01:07:07+00",16.7,19.7,,43.5,-652,395,49,1016.51,43,0
"2018-11-21 01:12:07+00",15.3,17.3,,43.4,-596,366,58,1016.56,42.9,0
"2018-11-21 01:17:07+00",19.1,22.1,,43.4,-753,428,36,1016.53,42.8,0
"2018-11-21 01:22:07+00",17.6,20.6,,43.3,-692,384,25,1016.59,42.7,0
"2018-11-21 01:27:07+00",13.2,15.2,,43,-499,302,52,1016.73,42.5,0
"2018-11-21 01:32:07+00",15.1,18.1,,43.1,-603,305,38,1016.89,42.4,0
"2018-11-21 01:37:07+00",15.7,17.7,,43,-620,312,41,1016.9,42.4,0
"2018-11-21 01:42:07+00",13.9,15.9,,42.9,-586,210,27,1016.92,42.3,0
"2018-11-21 01:47:07+00",13.0,14.0,,43,-557,174,38,1016.89,42.4,0
"2018-11-21 01:52:07+00",14.4,16.4,,42.8,-609,235,34,1016.92,42.3,0
"2018-11-21 01:57:07+00",13.4,14.4,,42.7,-559,211,37,1016.97,42.2,0
"2018-11-21 02:02:07+00",12.0,13.0,,42.6,-497,207,37,1016.97,42,0
"2018-11-21 02:07:07+00",12.3,14.3,,42.4,-507,203,27,1017.05,41.9,0
"2018-11-21 02:12:07+00",15.8,17.8,,42.5,-619,329,29,1016.95,41.7,0
"2018-11-21 02:17:07+00",13.1,14.1,,42.4,-538,238,33,1017.05,41.7,0
"2018-11-21 02:22:07+00",14.0,16.0,,42.4,-604,227,27,1017.07,41.6,0
"2018-11-21 02:27:07+00",12.7,14.7,,42.3,-528,206,41,1017.11,41.7,0
"2018-11-21 02:32:07+00",12.4,15.4,,42.1,-514,232,33,1017.22,41.5,0
"2018-11-21 02:37:07+00",15.7,16.7,,42.3,-615,317,13,1017.15,41.5,0
"2018-11-21 02:42:07+00",14.4,15.4,,42.2,-613,214,44,1017.2,41.6,0
"2018-11-21 02:47:07+00",14.9,15.9,,42.1,-632,214,61,1017.22,41.5,0
"2018-11-21 02:52:07+00",16.0,19.0,,42.2,-676,231,56,1017.28,41.6,0
"2018-11-21 02:57:07+00",16.7,18.7,,42.2,-688,293,35,1017.41,41.6,0
"2018-11-21 03:02:07+00",18.0,20.0,,42.3,-752,281,44,1017.52,41.6,0
"2018-11-21 03:07:07+00",17.6,21.6,,42.1,-731,318,46,1017.41,41.5,0
"2018-11-21 03:12:07+00",16.5,18.5,,42,-686,285,34,1017.4,41.4,0
"2018-11-21 03:17:07+00",16.1,18.1,,41.8,-630,328,51,1017.49,41.2,0
"2018-11-21 03:22:07+00",16.1,18.1,,41.8,-654,303,32,1017.54,41.1,0
"2018-11-21 03:27:07+00",15.6,18.6,,41.9,-623,335,33,1017.44,41.1,0
"2018-11-21 03:32:07+00",13.1,16.1,,41.9,-530,224,47,1017.41,41,0
"2018-11-21 03:37:07+00",12.1,14.1,,41.8,-495,196,33,1017.4,41,0
"2018-11-21 03:42:07+00",11.8,12.8,,41.9,-482,199,32,1017.44,41,0
"2018-11-21 03:47:07+00",9.8,12.8,,41.7,-408,104,44,1017.39,41,0
"2018-11-21 03:52:07+00",11.9,13.9,,41.5,-518,86,28,1017.48,40.9,0
"2018-11-21 03:57:07+00",12.3,13.3,,41.4,-538,104,25,1017.55,40.8,0
"2018-11-21 04:02:07+00",13.4,15.4,,41.4,-584,128,25,1017.61,40.8,0
"2018-11-21 04:07:07+00",12.5,14.5,,41.4,-536,137,33,1017.75,40.7,0
"2018-11-21 04:12:07+00",11.4,14.4,,41.4,-500,89,34,1017.86,40.7,0
"2018-11-21 04:17:07+00",12.6,14.6,,41.4,-549,122,30,1017.8,40.8,0
"2018-11-21 04:22:07+00",13.9,14.9,,41.5,-594,203,53,1017.78,40.9,0
"2018-11-21 04:27:07+00",16.2,18.2,,41.4,-697,227,38,1017.7,40.8,0
"2018-11-21 04:32:07+00",13.6,17.6,,41.1,-593,147,68,1017.72,40.7,0
"2018-11-21 04:37:07+00",14.8,17.8,,40.8,-637,178,57,1017.76,40.5,0
"2018-11-21 04:42:07+00",14.6,16.6,,40.4,-642,117,24,1017.79,40.3,0
"2018-11-21 04:47:07+00",15.4,18.4,,40.3,-666,160,52,1017.67,40.1,0
"2018-11-21 04:52:07+00",15.8,16.8,,40.1,-686,161,51,1017.67,40,0
"2018-11-21 04:57:07+00",16.5,19.5,,40.1,-694,248,44,1017.67,39.9,0
"2018-11-21 05:02:07+00",15.2,16.2,,39.8,-659,196,52,1017.62,39.7,0
"2018-11-21 05:07:07+00",16.8,18.8,,39.8,-716,247,51,1017.56,39.6,0
"2018-11-21 05:12:07+00",17.3,18.3,,39.7,-744,257,50,1017.68,39.3,0
"2018-11-21 05:17:07+00",19.4,21.4,,39.7,-813,300,41,1017.69,39.2,0
"2018-11-21 05:22:07+00",16.4,21.4,,39.7,-670,311,41,1017.61,39.1,0
"2018-11-21 05:27:07+00",16.4,20.4,,39.7,-670,314,50,1017.74,39.1,0
"2018-11-21 05:32:07+00",19.2,22.2,,39.7,-768,380,43,1017.63,39,0
"2018-11-21 05:37:07+00",17.2,20.2,,39.4,-694,336,34,1017.73,38.9,0
"2018-11-21 05:42:07+00",13.1,15.1,,39.6,-567,151,31,1017.89,39,0
"2018-11-21 05:47:07+00",15.4,17.4,,39.4,-683,162,59,1017.97,39,0
"2018-11-21 05:52:07+00",12.9,14.9,,39.4,-555,165,60,1017.96,39,0
"2018-11-21 05:57:07+00",15.2,17.2,,39.2,-659,195,70,1017.95,38.8,0
"2018-11-21 06:02:07+00",16.7,17.7,,39.2,-723,217,48,1017.96,38.8,0
"2018-11-21 06:07:07+00",14.1,16.1,,39.1,-609,203,59,1017.93,38.8,0
"2018-11-21 06:12:07+00",14.3,16.3,,38.8,-623,146,41,1017.95,38.6,0
"2018-11-21 06:17:07+00",12.8,14.8,,38.6,-585,123,50,1018.04,38.4,0
"2018-11-21 06:22:07+00",12.7,14.7,,38.5,-540,169,52,1017.94,38.3,0
"2018-11-21 06:27:07+00",15.5,17.5,,38.5,-642,267,33,1017.83,38.1,0
"2018-11-21 06:32:07+00",16.2,18.2,,38.6,-696,227,45,1017.86,38.1,0
"2018-11-21 06:37:07+00",13.3,16.3,,38.4,-529,282,42,1017.78,38,0
"2018-11-21 06:42:07+00",15.7,17.7,,38.3,-637,286,30,1017.81,37.8,0
"2018-11-21 06:47:07+00",15.3,18.3,,38.3,-636,266,39,1017.83,37.8,0
"2018-11-21 06:52:07+00",14.3,16.3,,38.3,-581,269,42,1017.9,37.8,0
"2018-11-21 06:57:07+00",13.2,14.2,,38.3,-550,219,38,1017.94,37.8,0
"2018-11-21 07:02:07+00",15.6,17.6,,38.2,-648,262,48,1017.98,37.8,0
"2018-11-21 07:07:07+00",14.6,17.6,,38.2,-606,233,32,1017.95,37.7,0
"2018-11-21 07:12:07+00",15.9,16.9,,38.1,-657,262,28,1018.02,37.7,0
"2018-11-21 07:17:07+00",11.9,13.9,,38.2,-477,223,36,1018.1,37.7,0
"2018-11-21 07:22:07+00",12.5,14.5,,38.3,-478,283,29,1018.13,37.6,0
"2018-11-21 07:27:07+00",12.2,14.2,,38.4,-479,260,28,1018.24,37.6,0
"2018-11-21 07:32:07+00",13.2,14.2,,38.5,-532,251,36,1018.15,37.6,0
"2018-11-21 07:37:07+00",12.4,14.4,,38.4,-511,213,41,1018.2,37.7,0
"2018-11-21 07:42:07+00",11.8,13.8,,38.2,-503,170,40,1018.17,37.8,0
"2018-11-21 07:47:07+00",11.6,13.6,,38.1,-511,91,35,1018.34,37.9,0
"2018-11-21 07:52:07+00",11.8,13.8,,37.5,-523,29,24,1018.38,37.7,0
"2018-11-21 07:57:07+00",12.8,15.8,,37,-560,8,38,1018.47,37.4,0
"2018-11-21 08:02:07+00",12.7,14.7,,37,-559,104,50,1018.23,37.1,0
"2018-11-21 08:07:07+00",12.4,14.4,,37,-558,51,43,1018.24,37,0
"2018-11-21 08:12:07+00",11.8,13.8,,37.1,-509,39,30,1018.19,37.1,0
"2018-11-21 08:17:07+00",11.3,13.3,,37.2,-507,63,38,1018.26,37,0
"2018-11-21 08:22:07+00",13.4,15.4,,37.6,-585,145,51,1018.09,37.2,0
"2018-11-21 08:27:07+00",13.4,15.4,,37.6,-587,40,18,1018.27,37.3,0
"2018-11-21 08:32:07+00",11.8,13.8,,37.3,-512,105,38,1018.04,37.2,0
"2018-11-21 08:37:07+00",11.9,13.9,,37.8,-509,135,41,1017.98,37.4,0
"2018-11-21 08:42:07+00",10.3,11.3,,37.5,-442,8,27,1018.07,37.4,0
"2018-11-21 08:47:07+00",11.3,12.3,,37.4,-497,82,41,1017.99,37.2,0
"2018-11-21 08:52:07+00",9.6,11.6,,37.1,-423,11,26,1018.01,37.1,0
"2018-11-21 08:57:07+00",10.8,12.8,,37.1,-486,85,46,1017.91,36.9,0
"2018-11-21 09:02:07+00",11.4,13.4,,37,-510,21,28,1017.92,36.9,0
"2018-11-21 09:07:07+00",12.8,13.8,,37.1,-547,166,33,1017.91,36.9,0
"2018-11-21 09:12:07+00",12.1,13.1,,37.1,-518,170,45,1017.89,37,0
"2018-11-21 09:17:07+00",10.4,12.4,,37.1,-447,126,31,1017.96,37,0
"2018-11-21 09:22:07+00",10.4,13.4,,37.3,-443,154,45,1018,37.1,0
"2018-11-21 09:27:07+00",10.8,12.8,,37.2,-457,155,31,1018,37.1,0
"2018-11-21 09:32:07+00",11.5,13.5,,37.1,-478,183,21,1017.97,36.9,0
"2018-11-21 09:37:07+00",11.2,13.2,,37.3,-488,106,16,1018.1,37,0
"2018-11-21 09:42:07+00",10.7,11.7,,37.3,-432,171,36,1018.03,37.1,0
"2018-11-21 09:47:07+00",8.2,10.2,,37.3,-350,104,33,1018.1,37,0
"2018-11-21 09:52:07+00",8.9,9.9,,37.5,-381,99,45,1018.05,37.1,0
"2018-11-21 09:57:07+00",9.4,10.4,,37.3,-420,69,19,1018.08,37.1,0
"2018-11-21 10:02:07+00",7.8,9.8,,37.1,-335,18,25,1018.18,36.9,0
"2018-11-21 10:07:07+00",9.8,10.8,,36.8,-432,39,14,1018.21,36.6,0
"2018-11-21 10:12:07+00",7.8,9.8,,37.3,-345,68,45,1018.11,36.6,0
"2018-11-21 10:17:07+00",9.4,10.4,,37.2,-402,-33,11,1018.34,36.6,0
"2018-11-21 10:22:07+00",9.8,10.8,,36.9,-424,-24,12,1018.45,36.5,0
"2018-11-21 10:27:07+00",8.3,9.3,,36.9,-360,10,16,1018.24,36.4,0
"2018-11-21 10:32:07+00",9.8,10.8,,37.2,-422,-21,16,1018.35,36.5,0
"2018-11-21 10:37:07+00",8.8,9.8,,37.4,-371,-67,13,1018.5,36.5,0
"2018-11-21 10:42:07+00",9.1,10.1,,37.2,-387,-53,11,1018.45,36.5,0
"2018-11-21 10:47:07+00",9.4,10.4,,37.1,-391,-127,14,1018.51,36.4,0
"2018-11-21 10:52:07+00",8.2,9.2,,37,-342,-61,14,1018.47,36.4,0
"2018-11-21 10:57:07+00",9.7,10.7,,37.2,-408,-69,18,1018.4,36.3,0
"2018-11-21 11:02:07+00",9.9,11.9,,37.4,-412,-79,20,1018.57,36.4,0
"2018-11-21 11:07:07+00",11.1,12.1,,37.5,-481,-40,17,1018.5,36.6,0
"2018-11-21 11:12:07+00",9.0,10.0,,37.4,-388,-11,16,1018.56,36.7,0
"2018-11-21 11:17:07+00",7.3,8.3,,37.1,-305,-48,8,1018.67,36.6,0
"2018-11-21 11:22:07+00",8.1,9.1,,36.9,-349,-18,14,1018.63,36.5,0
"2018-11-21 11:27:07+00",9.8,10.8,,36.6,-377,-223,9,1018.76,36.3,0
"2018-11-21 11:32:07+00",10.1,12.1,,36.5,-432,-36,15,1018.65,36.2,0
"2018-11-21 11:37:07+00",9.9,10.9,,36.7,-435,-32,7,1018.64,36.3,0
"2018-11-21 11:42:07+00",9.8,10.8,,36.8,-416,-58,16,1018.69,36.3,0
"2018-11-21 11:47:07+00",10.8,13.8,,36.9,-458,-72,12,1018.6,36.3,0
"2018-11-21 11:52:07+00",10.1,12.1,,36.9,-440,-171,17,1018.68,36.5,0
"2018-11-21 11:57:07+00",11.3,13.3,,36.5,-477,-102,12,1018.52,36.4,0
"2018-11-21 12:02:07+00",9.9,11.9,,36.4,-428,-167,26,1018.56,36.3,0
"2018-11-21 12:07:07+00",11.1,13.1,,36.2,-460,-109,18,1018.62,36.2,0
"2018-11-21 12:12:07+00",10.2,11.2,,36.4,-436,-33,12,1018.59,36.2,0
"2018-11-21 12:17:07+00",10.4,12.4,,36.7,-460,-10,45,1018.66,36.3,0
"2018-11-21 12:22:07+00",11.3,13.3,,36.9,-490,-43,-1,1018.71,36.5,13.3
"2018-11-21 12:27:07+00",10.9,11.9,,37.1,-474,-22,25,1018.65,36.9,19.8
"2018-11-21 12:32:07+00",13.1,15.1,,37.3,-573,14,33,1018.82,37.3,30.1
"2018-11-21 12:37:07+00",12.1,14.1,,37.4,-534,-18,24,1018.93,37.9,36.6
"2018-11-21 12:42:07+00",11.5,13.5,,37.4,-503,46,39,1018.99,38.4,45.9
"2018-11-21 12:47:07+00",11.5,12.5,,37.4,-505,12,20,1019.13,38.7,54.8
"2018-11-21 12:52:07+00",13.6,15.6,,37.5,-591,123,28,1019.16,38.9,63.6
"2018-11-21 12:57:07+00",15.1,18.1,,37.5,-658,166,43,1019.07,39.1,71.3
"2018-11-21 13:02:07+00",13.5,15.5,,37.4,-595,98,29,1019.12,39.2,81.6
"2018-11-21 13:07:07+00",14.2,16.2,,37.3,-614,133,37,1019.11,39.2,89.3
"2018-11-21 13:12:07+00",12.3,16.3,,37.3,-548,41,38,1019.17,39.3,98.6
"2018-11-21 13:17:07+00",14.2,16.2,,37.3,-625,83,21,1019.06,39.4,108.2
"2018-11-21 13:22:07+00",12.6,14.6,,37.4,-556,92,41,1019.05,39.5,117.9
"2018-11-21 13:27:07+00",12.1,14.1,,37.4,-529,87,67,1019.08,39.6,127.5
"2018-11-21 13:32:07+00",15.7,16.7,,37.4,-693,56,8,1019.11,39.6,135.2
"2018-11-21 13:37:07+00",14.0,15.0,,37.8,-619,73,47,1019.15,39.8,143.4
"2018-11-21 13:42:07+00",15.5,18.5,,37.7,-681,79,48,1019.11,39.9,151.8
"2018-11-21 13:47:07+00",13.8,15.8,,37.6,-603,151,59,1019.21,39.7,160.1
"2018-11-21 13:52:07+00",17.3,19.3,,37.7,-760,139,39,1019.1,39.7,168.2
"2018-11-21 13:57:07+00",15.2,18.2,,38.1,-665,187,87,1019.13,39.8,175.6
"2018-11-21 14:02:07+00",16.1,18.1,,38.2,-672,270,42,1019.13,40,182.4
"2018-11-21 14:07:07+00",16.6,18.6,,38.3,-708,245,35,1019.19,40.1,190.3
"2018-11-21 14:12:07+00",15.8,17.8,,38.9,-697,146,48,1019.11,40.4,195.4
"2018-11-21 14:17:07+00",17.9,20.9,,38.9,-801,91,37,1019.06,40.7,200.9
"2018-11-21 14:22:07+00",13.7,15.7,,39.1,-605,131,51,1019.07,40.8,207
"2018-11-21 14:27:07+00",14.9,16.9,,39.2,-654,163,41,1019.18,41.1,213.3
"2018-11-21 14:32:07+00",12.4,15.4,,39.6,-546,12,19,1019.07,41.5,210.2
"2018-11-21 14:37:07+00",12.3,15.3,,39.8,-532,153,72,1019.09,41.9,222
"2018-11-21 14:42:07+00",14.6,16.6,,39.7,-646,135,46,1019.12,41.9,229.7
"2018-11-21 14:47:07+00",16.0,18.0,,40,-699,124,29,1019.12,42.1,232.8
"2018-11-21 14:52:07+00",15.2,18.2,,40.1,-679,82,41,1019.07,42.2,239.4
"2018-11-21 14:57:07+00",17.0,20.0,,40.6,-759,28,58,1018.98,42.4,243.5
"2018-11-21 15:02:07+00",14.4,16.4,,40.5,-638,63,43,1018.97,42.5,248.6
"2018-11-21 15:07:07+00",13.9,15.9,,40.8,-610,23,21,1019,43,250.6
"2018-11-21 15:12:07+00",13.0,17.0,,40.7,-558,35,39,1018.97,43.2,252.9
"2018-11-21 15:17:07+00",14.6,15.6,,40.7,-649,70,30,1018.87,43.4,258.4
"2018-11-21 15:22:07+00",18.1,20.1,,41.4,-797,167,42,1018.78,43.4,262.5
"2018-11-21 15:27:07+00",17.7,19.7,,41.3,-764,234,49,1018.7,43.4,265.8
"2018-11-21 15:32:07+00",19.3,22.3,,41.7,-832,240,36,1018.56,43.6,268.9
"2018-11-21 15:37:07+00",18.4,21.4,,41.9,-797,223,74,1018.53,43.7,272.8
"2018-11-21 15:42:07+00",21.1,24.1,,42.1,-923,210,48,1018.47,43.9,276.4
"2018-11-21 15:47:07+00",24.1,28.1,,42.1,-1065,232,62,1018.38,43.9,277.7
"2018-11-21 15:52:07+00",21.5,25.5,,42.2,-941,256,66,1018.36,43.9,279.5
"2018-11-21 15:57:07+00",20.8,23.8,,42.5,-921,173,66,1018.31,44.1,280.8
"2018-11-21 16:02:07+00",22.8,27.8,,42.9,-980,307,90,1018.17,44.5,276.9
"2018-11-21 16:07:07+00",18.9,22.9,,43.4,-835,141,45,1018.15,44.9,284.2
"2018-11-21 16:12:07+00",22.2,26.2,,43.1,-967,270,45,1017.91,45,288.2
"2018-11-21 16:17:07+00",18.7,21.7,,43.6,-826,33,72,1017.72,45.4,287.3
"2018-11-21 16:22:07+00",19.3,22.3,,43.7,-853,47,66,1017.62,45.6,289.9
"2018-11-21 16:27:07+00",20.6,24.6,,44,-911,139,59,1017.51,45.9,289.8
"2018-11-21 16:32:07+00",23.5,25.5,,43.9,-1016,292,69,1017.33,45.9,290.9
"2018-11-21 16:37:07+00",19.6,23.6,,44.3,-856,242,93,1017.22,46,291.4
"2018-11-21 16:42:07+00",20.3,24.3,,44.4,-880,62,82,1017.13,46.1,290.6
"2018-11-21 16:47:07+00",19.6,24.6,,44.6,-865,162,77,1017.04,46.4,291.7
"2018-11-21 16:52:07+00",20.5,23.5,,44.7,-900,213,61,1016.96,46.6,289.4
"2018-11-21 16:57:07+00",19.0,21.0,,44.7,-828,222,58,1016.92,46.7,285.2
"2018-11-21 17:02:07+00",22.1,24.1,,44.9,-973,209,50,1016.91,46.7,283.2
"2018-11-21 17:07:07+00",22.6,25.6,,45.1,-1004,105,52,1016.72,47,282.5
"2018-11-21 17:12:07+00",18.9,22.9,,45.4,-837,0,68,1016.7,47.3,281.7
"2018-11-21 17:17:07+00",17.7,20.7,,45.5,-784,70,65,1016.7,47.7,283.9
"2018-11-21 17:22:07+00",18.1,22.1,,45.8,-802,105,59,1016.64,48.1,293.9
"2018-11-21 17:27:07+00",23.2,26.2,,45.6,-1030,143,50,1016.41,48.1,167.6
"2018-11-21 17:32:07+00",18.4,21.4,,45.8,-812,142,62,1016.46,47.9,282.6
"2018-11-21 17:37:07+00",18.7,21.7,,45.9,-823,157,69,1016.37,47.9,293.4
"2018-11-21 17:42:07+00",22.9,25.9,,46.3,-1006,209,71,1016.28,48.4,296.9
"2018-11-21 17:47:07+00",21.7,25.7,,46.3,-953,124,76,1016.24,48.4,281.5
"2018-11-21 17:52:07+00",23.7,27.7,,46.2,-1037,200,76,1016.11,48.2,263.6
"2018-11-21 17:57:07+00",24.0,27.0,,46.3,-1037,236,82,1016.14,48.1,268.7
"2018-11-21 18:02:07+00",21.1,24.1,,46.5,-925,214,81,1016.15,48.3,260.1
"2018-11-21 18:07:07+00",23.7,25.7,,46.3,-1039,283,58,1016.1,48.1,164.7
"2018-11-21 18:12:07+00",21.8,25.8,,46.6,-955,198,63,1016.19,48.1,256
"2018-11-21 18:17:07+00",18.3,21.3,,47.2,-797,-99,76,1016.1,48.7,250.5
"2018-11-21 18:22:07+00",19.5,21.5,,47.1,-848,-109,52,1016.1,49.1,243
"2018-11-21 18:27:07+00",15.3,17.3,,47.2,-658,-26,66,1016.04,49.5,237.8
"2018-11-21 18:32:07+00",22.2,25.2,,47.2,-957,-98,46,1015.97,49.5,233.3
"2018-11-21 18:37:07+00",23.1,27.1,,47.1,-992,-149,21,1015.92,49.4,229.5
"2018-11-21 18:42:07+00",22.4,25.4,,47.1,-962,-141,23,1015.86,49.3,224.6
"2018-11-21 18:47:07+00",21.2,23.2,,47.2,-938,25,35,1015.86,49.3,224
"2018-11-21 18:52:07+00",23.3,27.3,,47.2,-986,-233,33,1015.79,49.3,219
"2018-11-21 18:57:07+00",20.9,23.9,,47.3,-881,-171,28,1015.97,49.2,215.6
"2018-11-21 19:02:07+00",18.3,22.3,,47.5,-784,-127,62,1015.89,49.4,205.5
"2018-11-21 19:07:07+00",19.9,21.9,,47.8,-857,-122,35,1015.82,49.7,198.4
"2018-11-21 19:12:07+00",23.6,25.6,,47.8,-1043,223,60,1015.81,49.7,194.3
"2018-11-21 19:17:07+00",25.1,28.1,,47.7,-1097,223,67,1015.79,49.4,191.4
"2018-11-21 19:22:07+00",23.3,25.3,,47.7,-1033,149,53,1015.84,49.2,183.6
"2018-11-21 19:27:07+00",16.2,20.2,,47.9,-705,166,99,1015.92,49.4,174.8
"2018-11-21 19:32:07+00",17.0,19.0,,48.1,-753,11,48,1015.77,49.6,169.2
"2018-11-21 19:37:07+00",15.9,20.9,,48.4,-696,-25,59,1015.7,49.9,162.4
"2018-11-21 19:42:07+00",19.1,21.1,,48.2,-833,190,66,1015.81,49.8,133.7
"2018-11-21 19:47:07+00",19.8,23.8,,48,-840,298,66,1015.7,49.5,145.4
"2018-11-21 19:52:07+00",20.0,23.0,,48.1,-892,67,52,1015.78,49.5,139.8
"2018-11-21 19:57:07+00",16.4,20.4,,48.2,-730,32,45,1015.8,49.5,130.4
"2018-11-21 20:02:07+00",20.2,23.2,,48.2,-890,57,48,1015.73,49.6,124.4
"2018-11-21 20:07:07+00",24.6,28.6,,47.8,-1101,121,59,1015.74,49.1,101.7
"2018-11-21 20:12:07+00",26.0,30.0,,47.6,-1147,133,47,1015.81,48.7,99.4
"2018-11-21 20:17:07+00",21.7,23.7,,47.5,-957,217,61,1016.03,48.5,95.3
"2018-11-21 20:22:07+00",18.1,19.1,,47.6,-784,190,66,1016.12,48.4,89.6
"2018-11-21 20:27:07+00",18.7,22.7,,47.7,-797,265,63,1016.08,48.4,78.1
"2018-11-21 20:32:07+00",25.3,32.3,,47.6,-1102,295,63,1015.99,48.2,70.6
"2018-11-21 20:37:07+00",22.6,26.6,,47.5,-981,338,67,1016.16,48.1,61.9
"2018-11-21 20:42:07+00",26.4,30.4,,47.3,-1110,413,65,1016.17,47.8,55.8
"2018-11-21 20:47:07+00",24.3,28.3,,47.2,-1033,371,72,1016.16,47.6,31
"2018-11-21 20:52:07+00",22.6,25.6,,47.2,-981,317,56,1016.19,47.4,35.1
"2018-11-21 20:57:07+00",21.7,27.7,,47.2,-906,351,83,1016.29,47.4,28.4
"2018-11-21 21:02:07+00",18.2,20.2,,47.2,-785,225,63,1016.39,47.4,18.7
"2018-11-21 21:07:07+00",15.9,17.9,,47,-668,268,72,1016.47,47.3,12.1
"2018-11-21 21:12:07+00",21.7,23.7,,47.1,-948,282,73,1016.38,47.1,3.6
"2018-11-21 21:17:07+00",19.9,21.9,,47,-852,279,73,1016.38,47,0.1
"2018-11-21 21:22:07+00",16.8,17.8,,46.9,-725,219,57,1016.43,46.8,0
"2018-11-21 21:27:07+00",14.9,17.9,,46.7,-617,253,29,1016.53,46.6,0
"2018-11-21 21:32:07+00",13.2,15.2,,46.7,-566,235,49,1016.6,46.3,0
"2018-11-21 21:37:07+00",14.8,17.8,,46.6,-649,207,27,1016.6,46.1,0
"2018-11-21 21:42:07+00",17.0,22.0,,46.4,-683,352,52,1016.58,45.9,0
"2018-11-21 21:47:07+00",18.1,20.1,,46.5,-730,342,42,1016.62,45.9,0
"2018-11-21 21:52:07+00",20.9,21.9,,46.6,-888,333,47,1016.71,45.9,0
"2018-11-21 21:57:07+00",15.8,18.8,,46.3,-636,306,48,1016.72,45.8,0
"2018-11-21 22:02:07+00",13.9,14.9,,46.1,-568,276,35,1016.82,45.6,0
"2018-11-21 22:07:07+00",16.2,21.2,,46.1,-665,329,59,1016.72,45.5,0
"2018-11-21 22:12:07+00",15.8,18.8,,46.1,-580,381,53,1016.88,45.5,0
"2018-11-21 22:17:07+00",17.8,20.8,,46.1,-699,394,57,1016.9,45.4,0
"2018-11-21 22:22:07+00",19.2,21.2,,45.9,-711,479,58,1016.93,45.3,0
"2018-11-21 22:27:07+00",17.1,19.1,,45.8,-663,373,49,1017.08,45.3,0
"2018-11-21 22:32:07+00",16.3,19.3,,45.7,-623,370,38,1017.13,45.3,0
"2018-11-21 22:37:07+00",15.9,17.9,,45.7,-623,345,39,1017.18,45.3,0
"2018-11-21 22:42:07+00",18.8,20.8,,45.8,-771,348,44,1017.25,45.3,0
"2018-11-21 22:47:07+00",18.1,20.1,,45.8,-725,368,33,1017.26,45.4,0
"2018-11-21 22:52:07+00",19.4,21.4,,45.8,-699,498,49,1017.45,45.4,0
"2018-11-21 22:57:07+00",20.5,24.5,,45.8,-758,545,68,1017.51,45.4,0
"2018-11-21 23:02:07+00",16.2,20.2,,45.4,-303,653,38,1017.76,45.2,0
"2018-11-21 23:07:07+00",16.4,19.4,,44.5,-331,663,46,1017.83,44.6,0
"2018-11-21 23:12:07+00",16.3,22.3,,44.3,-303,654,35,1018,44.1,0
"2018-11-21 23:17:07+00",16.0,19.0,,44.3,-366,621,53,1018.03,44,0
"2018-11-21 23:22:07+00",15.4,17.4,,44.2,-349,583,47,1018.18,43.9,0
"2018-11-21 23:27:07+00",12.8,15.8,,44,-311,460,31,1018.23,43.7,0
"2018-11-21 23:32:07+00",11.7,13.7,,44.2,-386,367,44,1018.28,43.8,0
"2018-11-21 23:37:07+00",16.1,19.1,,44.3,-561,472,76,1018.42,43.9,0
"2018-11-21 23:42:07+00",24.9,30.9,,44.3,-880,674,67,1018.43,44,0
"2018-11-21 23:47:07+00",25.3,29.3,,44.2,-793,813,77,1018.44,44,0
"2018-11-21 23:52:07+00",29.4,36.4,,44,-995,881,80,1018.48,43.8,0
"2018-11-21 23:57:07+00",28.1,31.1,,43.8,-1010,758,71,1018.54,43.7,0
